TimeEDT,TemperatureF,Dew PointF,Humidity,Sea Level PressureIn,VisibilityMPH,Wind Direction,Wind SpeedMPH,Gust SpeedMPH,PrecipitationIn,Events,Conditions,WindDirDegrees,DateUTC
12:53 AM,59.0,39.9,49,29.83,10.0,WNW,6.9,-,N/A,,Mostly Cloudy,290,2012-10-20 04:53:00
1:53 AM,55.0,42.1,62,29.84,10.0,WNW,3.5,-,N/A,,Mostly Cloudy,290,2012-10-20 05:53:00
2:53 AM,52.0,44.1,74,29.85,10.0,Calm,Calm,-,N/A,,Partly Cloudy,0,2012-10-20 06:53:00
3:53 AM,50.0,46.0,86,29.84,10.0,Calm,Calm,-,N/A,,Mostly Cloudy,0,2012-10-20 07:53:00
4:53 AM,50.0,44.1,80,29.86,10.0,Calm,Calm,-,N/A,,Partly Cloudy,0,2012-10-20 08:53:00
5:53 AM,48.0,45.0,89,29.88,10.0,Calm,Calm,-,N/A,,Clear,0,2012-10-20 09:53:00
6:53 AM,46.9,44.1,90,29.90,10.0,Calm,Calm,-,N/A,,Clear,0,2012-10-20 10:53:00
7:53 AM,46.9,44.1,90,29.92,10.0,Calm,Calm,-,N/A,,Partly Cloudy,0,2012-10-20 11:53:00
8:53 AM,48.9,45.0,86,29.93,10.0,Calm,Calm,-,N/A,,Partly Cloudy,0,2012-10-20 12:53:00
9:53 AM,55.0,45.0,69,29.94,10.0,West,3.5,-,N/A,,Clear,260,2012-10-20 13:53:00
10:53 AM,57.9,43.0,58,29.95,10.0,West,8.1,-,N/A,,Scattered Clouds,270,2012-10-20 14:53:00
11:53 AM,60.1,44.1,55,29.95,10.0,Calm,Calm,-,N/A,,Scattered Clouds,0,2012-10-20 15:53:00
12:53 PM,61.0,43.0,52,29.94,10.0,Calm,Calm,-,N/A,,Scattered Clouds,0,2012-10-20 16:53:00
1:53 PM,64.4,44.6,49,29.94,10.0,Calm,Calm,-,N/A,,Scattered Clouds,0,2012-10-20 17:53:00
2:53 PM,64.0,44.1,48,29.91,10.0,WSW,5.8,-,N/A,,Mostly Cloudy,250,2012-10-20 18:53:00
3:53 PM,66.0,45.0,47,29.91,10.0,WNW,8.1,-,N/A,,Mostly Cloudy,290,2012-10-20 19:53:00
4:53 PM,66.9,45.0,45,29.91,10.0,Variable,6.9,-,N/A,,Mostly Cloudy,0,2012-10-20 20:53:00
5:53 PM,64.9,44.1,47,29.93,10.0,WNW,9.2,-,N/A,,Scattered Clouds,290,2012-10-20 21:53:00
6:53 PM,61.0,45.0,56,29.95,10.0,WNW,6.9,-,N/A,,Scattered Clouds,290,2012-10-20 22:53:00
7:53 PM,57.9,46.0,65,29.97,10.0,NW,3.5,-,N/A,,Clear,310,2012-10-20 23:53:00
8:53 PM,57.0,46.0,67,29.99,10.0,Calm,Calm,-,N/A,,Clear,0,2012-10-21 00:53:00
9:53 PM,53.1,46.9,80,30.00,10.0,Calm,Calm,-,N/A,,Clear,0,2012-10-21 01:53:00
10:53 PM,50.0,46.9,89,30.01,10.0,Calm,Calm,-,N/A,,Clear,0,2012-10-21 02:53:00
11:53 PM,50.0,46.9,89,30.02,10.0,Calm,Calm,-,N/A,,Clear,0,2012-10-21 03:53:00